Regional Weather Roundup
Issued by NWS

Home | Current Version | Previous Version | Graphics & Text | Print | Product List | Glossary On
Versions: 1 2 3 4 5 6 7 8 9 10 11 12 13 14 15 16 17 18 19 20 21 22 23 24 25 26 27 28 29 30 31 32 33 34 35 36 37 38 39 40 41 42 43 44 45 46 47 48 49 50
000
ASUS43 KMPX 032210
RWRMN
WEATHER ROUNDUP FOR MINNESOTA
NATIONAL WEATHER SERVICE TWIN CITIES/CHANHASSEN MN
500 PM CDT SUN MAY 03 2015


NOTE: "FAIR" INDICATES FEW OR NO CLOUDS BELOW 12,000 FEET WITH NO
SIGNIFICANT WEATHER AND/OR OBSTRUCTIONS TO VISIBILITY. N/A MEANS
CURRENT SKY AND/OR WEATHER CONDITIONS ARE NOT AVAILABLE.

MNZ060>063-068>070-032300-
   Twin Cities Metro

CITY           SKY/WX    TMP DP  RH WIND       PRES   REMARKS
TWIN CITIES    TSTM      75  59  57 N9        29.74F
ST PAUL        CLOUDY    78  53  41 N9        29.74F
CRYSTAL        TSTM      77  49  37 NW12      29.75F
BLAINE         TSTM      75  52  43 N13       29.76F
LAKEVILLE      CLOUDY    77  54  44 CALM      29.72S
EDEN PRAIRIE   HAIL      68  63  84 NW5       29.76R
SOUTH ST PAUL  FAIR      78  50  37 NW5       29.73F
LAKE ELMO      CLOUDY    77  54  44 N5        29.74F
$$
MNZ001>005-007-008-013>017-022>024-027-028-032300-
   Northwest Minnesota

CITY           SKY/WX    TMP DP  RH WIND       PRES   REMARKS
BEMIDJI        PTSUNNY   66  28  23 NW13G20   29.89S
HALLOCK        MOSUNNY   66  21  18 NW17G29   29.89R
ROSEAU         SUNNY     64  28  25 W14G25    29.88R
WARROAD        SUNNY     64  36  34 NW13G26   29.87R
THIEF RVR FALL SUNNY     66  25  20 NW20      29.90S
CROOKSTON      SUNNY     68  25  19 NW23      29.90S
DETROIT LAKES  MOSUNNY   63  28  27 N10G18    29.93R
MOORHEAD       SUNNY     70  21  16 NW15      29.92S
PARK RAPIDS    CLOUDY    67  22  18 N14       29.88F
MAHNOMEN       FAIR      67  23  19 NW14G20   29.90S
$$
MNZ006-009>011-018-025>026-032300-
   North Central Minnesota

CITY           SKY/WX    TMP DP  RH WIND       PRES   REMARKS
BAUDETTE       SUNNY     65  30  27 NW17G25   29.85R
FLAG ISLAND    SUNNY     61  34  36 W24G30    29.85R
INTL FALLS     MOSUNNY   66  27  23 NW18      29.84S
WASKISH        MOSUNNY   64  36  34 W10       29.87S
BIG FORK       CLOUDY    66  25  20 W6        29.87R
LONGVILLE      CLOUDY    66  30  26 W9        29.89F
GRAND RAPIDS   CLOUDY    63  30  29 W10       29.89S
CRANE LAKE     CLOUDY    63  28  27 NW7       29.85S
ORR            CLOUDY    64  21  19 NW13G18   29.82S
COOK           CLOUDY    64  34  32 W10       29.85F
WALKER         MOCLDY    63  25  23 NW7       29.88F
$$
MNZ012-019>021-037-032300-
   Northeast Minnesota

CITY           SKY/WX    TMP DP  RH WIND       PRES   REMARKS
DULUTH         LGT RAIN  66  38  35 NW14G29   29.86R
ELY            LGT RAIN  63  32  31 W9G16     29.85R
HIBBING        LGT RAIN  64  34  32 NW12G23   29.86R
EVELETH        CLOUDY    63  32  31 W8        29.87S
DULUTH HARBOR  PTSUNNY   72  37  28 NW24      29.83R
TWO HARBORS    MIX PCPN  72  45  37 NW9G20    29.83R
SILVER BAY     LGT RAIN  70  37  30 W7G24     29.82R
GRAND MARAIS     N/A     73  36  25 NW10G25   29.74F
G MARAIS ARPRT CLOUDY    66  32  28 W13G22    29.81R
$$
MNZ029>031-032-039>041-046>048-054>057-064-032300-
   West Central Minnesota

CITY           SKY/WX    TMP DP  RH WIND       PRES   REMARKS
FERGUS FALLS   PTSUNNY   66  27  22 N14G21    29.92R
WHEATON        PTSUNNY   64  28  25 N15G29    29.94R
MORRIS         MOSUNNY   73  36  25 N17       29.89R
ALEXANDRIA     CLOUDY    68  38  33 N10       29.90F
ELBOW LAKE     FAIR      65  34  31 N16       29.91R
WADENA         CLOUDY    64  36  34 NW8       29.90R
GLENWOOD       CLOUDY    68  37  32 NE13      29.89F
APPLETON       PTSUNNY   72  34  25 N14G22    29.89S
BENSON         PTSUNNY   70  30  23 NE14G20   29.89R
ORTONVILLE     PTSUNNY   70  34  26 N15       29.91R
MADISON        PTSUNNY   72  34  25 N12       29.91R
WILLMAR        FAIR      66  39  37 N15       29.88R
$$
MNZ033>034-036-042>043-049>051-058-059-032300-
   Central Minnesota

CITY           SKY/WX    TMP DP  RH WIND       PRES   REMARKS
ST CLOUD       CLOUDY    68  37  32 N25G35    29.85R
SAUK CENTRE    FAIR      66  39  37 NE10      29.88F
PAYNESVILLE    LGT RAIN  61  40  45 NW10G16   29.89R
AITKIN         CLOUDY    66  36  32 CALM      29.87S
PINE RIVER     CLOUDY    66  39  37 NW8       29.91F
BRAINERD       LGT RAIN  67  41  38 NE5       29.88F
STAPLES        CLOUDY    66  34  30 CALM      29.88F
LONG PRAIRIE   FAIR      64  37  36 N9        29.89F
LITTLE FALLS   LGT RAIN  64  37  36 N6        29.89S
LITCHFIELD     PTSUNNY   72  37  28 N24G35    29.85R
BUFFALO        CLOUDY    62  55  76 N12       29.84R
MAPLE LAKE     CLOUDY    65  58  77 NW7       29.85R
$$
MNZ037-044-045-052-053-032300-
   East Central Minnesota

CITY           SKY/WX    TMP DP  RH WIND       PRES   REMARKS
PRINCETON      PTSUNNY   73  37  27 N17G24    29.84R
MORA           MOSUNNY   70  36  28 N20G28    29.86R
CAMBRIDGE      PTSUNNY   75  50  41 NW15G22   29.81R
RUSH CITY      MOSUNNY   73  41  31 N14G22    29.80S
MOOSE LAKE     DRIZZLE   68  39  34 NW14G22   29.86R
HINCKLEY       MOCLDY    72  36  26 NW13G28   29.83R
CLOQUET        RAIN      64  36  34 NW17G30   29.88R
MCGREGOR       CLOUDY    64  41  42 NW5       29.89R
$$
MNZ071>073-080-081-089-090-097-098-032300-
   Southwest Minnesota

CITY           SKY/WX    TMP DP  RH WIND       PRES   REMARKS
MONTEVIDEO     PTSUNNY   66  43  42 NE10      29.89F
GRANITE FALLS  CLOUDY    67  36  31 N16G26    29.89R
CANBY          CLOUDY    67  37  33 N7        29.94S
MARSHALL       CLOUDY    70  36  28 N28       29.89R
REDWOOD FALLS  MOSUNNY   75  37  25 N21G35    29.82R
OLIVIA         MOSUNNY   70  34  26 N23G30    29.84R
PIPESTONE      CLOUDY    70  34  26 N23G31    29.86S
WINDOM         MOSUNNY   79  46  31 N25G38    29.81R
WORTHINGTON    PTSUNNY   79  45  29 N32G39    29.83R
JACKSON        LGT RAIN  75  55  50 NW15G22   29.79R
TRACY          MOSUNNY   74  38  28 N24G31    29.87R
SLAYTON        PTSUNNY   72  39  30 N28G37    29.86R
$$
MNZ065>067-074>077-082>085-091>093-032300-
   South Central Minnesota

CITY           SKY/WX    TMP DP  RH WIND       PRES   REMARKS
MANKATO          N/A    N/A N/A N/A MISG        N/A  THUNDER
NEW ULM        MOSUNNY   79  52  38 N24G33    29.74R
ST JAMES       MOSUNNY   84  48  28 NW13G23   29.76R
FAIRMONT       MOSUNNY   84  46  26 W8        29.74S
GLENCOE        MOSUNNY   76  56  51 NW26G37   29.79R
FARIBAULT      MOSUNNY   81  50  34 SW7       29.73S
OWATONNA       MOSUNNY   84  46  26 S9        29.73F
WASECA         MOSUNNY   82  46  28 S7G18     29.72F
ALBERT LEA     MOSUNNY   84  46  26 S10       29.73F
$$
MNZ078>079-086>088-094>096-032300-
   Southeast Minnesota

CITY           SKY/WX    TMP DP  RH WIND       PRES   REMARKS
ROCHESTER      MOSUNNY   83  50  31 S13G21    29.75F
RED WING       MOSUNNY   82  52  34 SE6       29.70F
STANTON        PTSUNNY   81  49  33 W7        29.70F
DODGE CENTER   MOSUNNY   81  50  34 SW14G22   29.74F
WINONA         MOSUNNY   82  48  30 SW5       29.75F
AUSTIN         PTSUNNY   81  52  36 SW10      29.74F
PRESTON        MOSUNNY   81  48  32 SW9       29.78F
$$
ABBREVIATIONS USED IN REMARKS
   TC - TEMPERATURES IN CELSIUS
  WCI - WIND CHILL INDEX
   HX - HEAT INDEX
  VSB - VISIBILITY
$$



USA.gov is the U.S. government's official web portal to all federal, state and local government web resources and services.